Time,TemperatureF,DewpointF,PressureIn,WindDirection,WindDirectionDegrees,WindSpeedMPH,WindSpeedGustMPH,Humidity,HourlyPrecipIn,Conditions,Clouds,dailyrainin,SolarRadiationWatts/m^2,SoftwareType,DateUTC
2013-05-28 00:11:00,44.0,40.0,-100.00,South,190,5.0,13.0,87,0.08,,,0.28,1.000000,,2013-05-28 07:11:00,
2013-05-28 00:21:00,44.0,40.0,-100.00,South,190,5.0,13.0,87,0.08,,,0.28,1.000000,,2013-05-28 07:21:00,
2013-05-28 00:32:00,44.0,40.0,-100.00,South,190,5.0,13.0,87,0.08,,,0.28,1.000000,,2013-05-28 07:32:00,
2013-05-28 00:42:00,44.0,40.0,-100.00,South,190,5.0,13.0,87,0.08,,,0.28,1.000000,,2013-05-28 07:42:00,
2013-05-28 00:51:00,44.0,41.0,-100.00,SSW,210,5.0,12.0,88,0.10,,,0.38,1.000000,,2013-05-28 07:51:00,
2013-05-28 01:11:00,44.0,41.0,-100.00,SSW,210,5.0,12.0,88,0.10,,,0.38,1.000000,,2013-05-28 08:11:00,
2013-05-28 01:21:00,44.0,41.0,-100.00,SSW,210,5.0,12.0,88,0.10,,,0.38,1.000000,,2013-05-28 08:21:00,
2013-05-28 01:32:00,44.0,41.0,-100.00,SSW,210,5.0,12.0,88,0.10,,,0.38,1.000000,,2013-05-28 08:32:00,
2013-05-28 01:42:00,44.0,41.0,-100.00,SSW,210,5.0,12.0,88,0.10,,,0.38,1.000000,,2013-05-28 08:42:00,
2013-05-28 01:51:00,44.0,42.0,-100.00,SSW,209,2.0,11.0,91,0.15,,,0.53,1.000000,,2013-05-28 08:51:00,
2013-05-28 02:11:00,44.0,42.0,-100.00,SSW,209,2.0,11.0,91,0.15,,,0.53,1.000000,,2013-05-28 09:11:00,
2013-05-28 02:21:00,44.0,42.0,-100.00,SSW,209,2.0,11.0,91,0.15,,,0.53,1.000000,,2013-05-28 09:21:00,
2013-05-28 02:33:00,44.0,42.0,-100.00,SSW,209,2.0,11.0,91,0.15,,,0.53,1.000000,,2013-05-28 09:33:00,
2013-05-28 02:42:00,44.0,42.0,-100.00,SSW,209,2.0,11.0,91,0.15,,,0.53,1.000000,,2013-05-28 09:42:00,
2013-05-28 02:51:00,44.0,41.0,-100.00,South,183,4.0,15.0,88,0.08,,,0.61,1.000000,,2013-05-28 09:51:00,
2013-05-28 03:12:00,44.0,41.0,-100.00,South,183,4.0,15.0,88,0.08,,,0.61,1.000000,,2013-05-28 10:12:00,
2013-05-28 03:22:00,44.0,41.0,-100.00,South,183,4.0,15.0,88,0.08,,,0.61,1.000000,,2013-05-28 10:22:00,
2013-05-28 03:32:00,44.0,41.0,-100.00,South,183,4.0,15.0,88,0.08,,,0.61,1.000000,,2013-05-28 10:32:00,
2013-05-28 03:42:00,44.0,41.0,-100.00,South,183,4.0,15.0,88,0.08,,,0.61,1.000000,,2013-05-28 10:42:00,
2013-05-28 03:51:00,44.0,41.0,-100.00,SSE,147,5.0,17.0,88,0.05,,,0.66,1.000000,,2013-05-28 10:51:00,
2013-05-28 04:11:00,44.0,41.0,-100.00,SSE,147,5.0,17.0,88,0.05,,,0.66,1.000000,,2013-05-28 11:11:00,
2013-05-28 04:22:00,44.0,41.0,-100.00,SSE,147,5.0,17.0,88,0.05,,,0.66,1.000000,,2013-05-28 11:22:00,
2013-05-28 04:32:00,44.0,41.0,-100.00,SSE,147,5.0,17.0,88,0.05,,,0.66,1.000000,,2013-05-28 11:32:00,
2013-05-28 04:41:00,44.0,41.0,-100.00,SSE,147,5.0,17.0,88,0.05,,,0.66,1.000000,,2013-05-28 11:41:00,
2013-05-28 04:51:00,43.0,41.0,-100.00,SE,130,4.0,9.0,91,0.08,,,0.74,1.000000,,2013-05-28 11:51:00,
2013-05-28 05:11:00,43.0,41.0,-100.00,SE,130,4.0,9.0,91,0.08,,,0.74,1.000000,,2013-05-28 12:11:00,
2013-05-28 05:21:00,43.0,41.0,-100.00,SE,130,4.0,9.0,91,0.08,,,0.74,1.000000,,2013-05-28 12:21:00,
2013-05-28 05:31:00,43.0,41.0,-100.00,SE,130,4.0,9.0,91,0.08,,,0.74,1.000000,,2013-05-28 12:31:00,
2013-05-28 05:42:00,43.0,41.0,-100.00,SE,130,4.0,9.0,91,0.08,,,0.74,1.000000,,2013-05-28 12:42:00,
2013-05-28 05:51:00,43.0,40.0,-100.00,SSE,163,4.0,12.0,90,0.02,,,0.76,2.000000,,2013-05-28 12:51:00,
2013-05-28 06:11:00,43.0,40.0,-100.00,SSE,163,4.0,12.0,90,0.02,,,0.76,2.000000,,2013-05-28 13:11:00,
2013-05-28 06:21:00,43.0,40.0,-100.00,SSE,163,4.0,12.0,90,0.02,,,0.76,2.000000,,2013-05-28 13:21:00,
2013-05-28 06:32:00,43.0,40.0,-100.00,SSE,163,4.0,12.0,90,0.02,,,0.76,2.000000,,2013-05-28 13:32:00,
2013-05-28 06:42:00,43.0,40.0,-100.00,SSE,163,4.0,12.0,90,0.02,,,0.76,2.000000,,2013-05-28 13:42:00,
2013-05-28 06:51:00,42.0,39.0,-100.00,South,181,3.0,7.0,89,0.02,,,0.78,29.000000,,2013-05-28 13:51:00,
2013-05-28 07:11:00,42.0,39.0,-100.00,South,181,3.0,7.0,89,0.02,,,0.78,29.000000,,2013-05-28 14:11:00,
2013-05-28 07:21:00,42.0,39.0,-100.00,South,181,3.0,7.0,89,0.02,,,0.78,29.000000,,2013-05-28 14:21:00,
2013-05-28 07:32:00,42.0,39.0,-100.00,South,181,3.0,7.0,89,0.02,,,0.78,29.000000,,2013-05-28 14:32:00,
2013-05-28 07:41:00,42.0,39.0,-100.00,South,181,3.0,7.0,89,0.02,,,0.78,29.000000,,2013-05-28 14:41:00,
2013-05-28 07:51:00,45.0,39.0,-100.00,South,188,4.0,11.0,80,0.00,,,0.78,169.000000,,2013-05-28 14:51:00,
2013-05-28 08:11:00,45.0,39.0,-100.00,South,188,4.0,11.0,80,0.00,,,0.78,169.000000,,2013-05-28 15:11:00,
2013-05-28 08:21:00,45.0,39.0,-100.00,South,188,4.0,11.0,80,0.00,,,0.78,169.000000,,2013-05-28 15:21:00,
2013-05-28 08:32:00,45.0,39.0,-100.00,South,188,4.0,11.0,80,0.00,,,0.78,169.000000,,2013-05-28 15:32:00,
2013-05-28 08:43:00,45.0,39.0,-100.00,South,188,4.0,11.0,80,0.00,,,0.78,169.000000,,2013-05-28 15:43:00,
2013-05-28 08:51:00,47.0,39.0,-100.00,SSW,200,6.0,12.0,73,0.00,,,-99.99,316.000000,,2013-05-28 15:51:00,
2013-05-28 09:12:00,47.0,39.0,-100.00,SSW,200,6.0,12.0,73,0.00,,,-99.99,316.000000,,2013-05-28 16:12:00,
2013-05-28 09:22:00,47.0,39.0,-100.00,SSW,200,6.0,12.0,73,0.00,,,-99.99,316.000000,,2013-05-28 16:22:00,
2013-05-28 09:33:00,47.0,39.0,-100.00,SSW,200,6.0,12.0,73,0.00,,,-99.99,316.000000,,2013-05-28 16:33:00,
2013-05-28 09:42:00,47.0,39.0,-100.00,SSW,200,6.0,12.0,73,0.00,,,-99.99,316.000000,,2013-05-28 16:42:00,
2013-05-28 09:51:00,50.0,39.0,-100.00,SSW,208,5.0,15.0,66,0.00,,,0.78,574.000000,,2013-05-28 16:51:00,
2013-05-28 10:12:00,50.0,39.0,-100.00,SSW,208,5.0,15.0,66,0.00,,,0.78,574.000000,,2013-05-28 17:12:00,
2013-05-28 10:22:00,50.0,39.0,-100.00,SSW,208,5.0,15.0,66,0.00,,,0.78,574.000000,,2013-05-28 17:22:00,
2013-05-28 10:32:00,50.0,39.0,-100.00,SSW,208,5.0,15.0,66,0.00,,,0.78,574.000000,,2013-05-28 17:32:00,
2013-05-28 10:41:00,50.0,39.0,-100.00,SSW,208,5.0,15.0,66,0.00,,,0.78,574.000000,,2013-05-28 17:41:00,
2013-05-28 10:51:00,53.0,38.0,-100.00,South,190,6.0,14.0,57,0.00,,,0.78,866.000000,,2013-05-28 17:51:00,
2013-05-28 11:11:00,53.0,38.0,-100.00,South,190,6.0,14.0,57,0.00,,,0.78,866.000000,,2013-05-28 18:11:00,
2013-05-28 11:21:00,53.0,38.0,-100.00,South,190,6.0,14.0,57,0.00,,,0.78,866.000000,,2013-05-28 18:21:00,
2013-05-28 11:32:00,53.0,38.0,-100.00,South,190,6.0,14.0,57,0.00,,,0.78,866.000000,,2013-05-28 18:32:00,
2013-05-28 11:42:00,53.0,38.0,-100.00,South,190,6.0,14.0,57,0.00,,,0.78,866.000000,,2013-05-28 18:42:00,
2013-05-28 11:51:00,55.0,36.0,-100.00,SW,228,6.0,14.0,49,0.00,,,0.78,996.000000,,2013-05-28 18:51:00,
2013-05-28 12:11:00,55.0,36.0,-100.00,SW,228,6.0,14.0,49,0.00,,,0.78,996.000000,,2013-05-28 19:11:00,
2013-05-28 12:21:00,55.0,36.0,-100.00,SW,228,6.0,14.0,49,0.00,,,0.78,996.000000,,2013-05-28 19:21:00,
2013-05-28 12:32:00,55.0,36.0,-100.00,SW,228,6.0,14.0,49,0.00,,,0.78,996.000000,,2013-05-28 19:32:00,
2013-05-28 12:41:00,55.0,36.0,-100.00,SW,228,6.0,14.0,49,0.00,,,0.78,996.000000,,2013-05-28 19:41:00,
2013-05-28 12:51:00,58.0,38.0,-100.00,SW,225,5.0,14.0,48,0.00,,,0.78,1105.000000,,2013-05-28 19:51:00,
2013-05-28 13:11:00,58.0,38.0,-100.00,SW,225,5.0,14.0,48,0.00,,,0.78,1105.000000,,2013-05-28 20:11:00,
2013-05-28 13:22:00,58.0,38.0,-100.00,SW,225,5.0,14.0,48,0.00,,,0.78,1105.000000,,2013-05-28 20:22:00,
2013-05-28 13:32:00,58.0,38.0,-100.00,SW,225,5.0,14.0,48,0.00,,,0.78,1105.000000,,2013-05-28 20:32:00,
2013-05-28 13:42:00,58.0,38.0,-100.00,SW,225,5.0,14.0,48,0.00,,,0.78,1105.000000,,2013-05-28 20:42:00,
2013-05-28 13:51:00,59.0,37.0,-100.00,SW,226,5.0,13.0,44,0.00,,,0.71,1076.000000,,2013-05-28 20:51:00,
2013-05-28 14:11:00,59.0,37.0,-100.00,SW,226,5.0,13.0,44,0.00,,,0.71,1076.000000,,2013-05-28 21:11:00,
2013-05-28 14:21:00,59.0,37.0,-100.00,SW,226,5.0,13.0,44,0.00,,,0.71,1076.000000,,2013-05-28 21:21:00,
2013-05-28 14:33:00,59.0,37.0,-100.00,SW,226,5.0,13.0,44,0.00,,,0.71,1076.000000,,2013-05-28 21:33:00,
2013-05-28 14:43:00,59.0,37.0,-100.00,SW,226,5.0,13.0,44,0.00,,,0.71,1076.000000,,2013-05-28 21:43:00,
2013-05-28 14:51:00,57.0,35.0,-100.00,SW,217,5.0,13.0,44,0.00,,,0.68,760.000000,,2013-05-28 21:51:00,
2013-05-28 15:12:00,57.0,35.0,-100.00,SW,217,5.0,13.0,44,0.00,,,0.68,760.000000,,2013-05-28 22:12:00,
2013-05-28 15:22:00,57.0,35.0,-100.00,SW,217,5.0,13.0,44,0.00,,,0.68,760.000000,,2013-05-28 22:22:00,
2013-05-28 15:32:00,57.0,35.0,-100.00,SW,217,5.0,13.0,44,0.00,,,0.68,760.000000,,2013-05-28 22:32:00,
2013-05-28 15:42:00,57.0,35.0,-100.00,SW,217,5.0,13.0,44,0.00,,,0.68,760.000000,,2013-05-28 22:42:00,
2013-05-28 15:51:00,56.0,37.0,-100.00,SSW,206,6.0,13.0,49,0.00,,,0.68,391.000000,,2013-05-28 22:51:00,
2013-05-28 16:11:00,56.0,37.0,-100.00,SSW,206,6.0,13.0,49,0.00,,,0.68,391.000000,,2013-05-28 23:11:00,
2013-05-28 16:21:00,56.0,37.0,-100.00,SSW,206,6.0,13.0,49,0.00,,,0.68,391.000000,,2013-05-28 23:21:00,
2013-05-28 16:32:00,56.0,37.0,-100.00,SSW,206,6.0,13.0,49,0.00,,,0.68,391.000000,,2013-05-28 23:32:00,
2013-05-28 16:42:00,56.0,37.0,-100.00,SSW,206,6.0,13.0,49,0.00,,,0.68,391.000000,,2013-05-28 23:42:00,
2013-05-28 16:51:00,60.0,34.0,-100.00,SW,232,5.0,13.0,38,0.00,,,0.68,684.000000,,2013-05-28 23:51:00,
2013-05-28 17:11:00,60.0,34.0,-100.00,SW,232,5.0,13.0,38,0.00,,,0.68,684.000000,,2013-05-29 00:11:00,
2013-05-28 17:21:00,60.0,34.0,-100.00,SW,232,5.0,13.0,38,0.00,,,0.68,684.000000,,2013-05-29 00:21:00,
2013-05-28 17:32:00,60.0,34.0,-100.00,SW,232,5.0,13.0,38,0.00,,,0.68,684.000000,,2013-05-29 00:32:00,
2013-05-28 17:41:00,60.0,34.0,-100.00,SW,232,5.0,13.0,38,0.00,,,0.68,684.000000,,2013-05-29 00:41:00,
2013-05-28 17:51:00,58.0,38.0,-100.00,SSW,209,5.0,11.0,48,0.00,,,0.67,445.000000,,2013-05-29 00:51:00,
2013-05-28 18:11:00,58.0,38.0,-100.00,SSW,209,5.0,11.0,48,0.00,,,0.67,445.000000,,2013-05-29 01:11:00,
2013-05-28 18:22:00,58.0,38.0,-100.00,SSW,209,5.0,11.0,48,0.00,,,0.67,445.000000,,2013-05-29 01:22:00,
2013-05-28 18:32:00,58.0,38.0,-100.00,SSW,209,5.0,11.0,48,0.00,,,0.67,445.000000,,2013-05-29 01:32:00,
2013-05-28 18:41:00,58.0,38.0,-100.00,SSW,209,5.0,11.0,48,0.00,,,0.67,445.000000,,2013-05-29 01:41:00,
2013-05-28 18:51:00,52.0,39.0,-100.00,SSE,166,2.0,7.0,60,0.00,,,0.65,141.000000,,2013-05-29 01:51:00,
2013-05-28 19:12:00,52.0,39.0,-100.00,SSE,166,2.0,7.0,60,0.00,,,0.65,141.000000,,2013-05-29 02:12:00,
2013-05-28 19:21:00,52.0,39.0,-100.00,SSE,166,2.0,7.0,60,0.00,,,0.65,141.000000,,2013-05-29 02:21:00,
2013-05-28 19:32:00,52.0,39.0,-100.00,SSE,166,2.0,7.0,60,0.00,,,0.65,141.000000,,2013-05-29 02:32:00,
2013-05-28 19:41:00,52.0,39.0,-100.00,SSE,166,2.0,7.0,60,0.00,,,0.65,141.000000,,2013-05-29 02:41:00,
2013-05-28 19:51:00,50.0,40.0,-100.00,SSW,213,4.0,9.0,68,0.00,,,0.65,80.000000,,2013-05-29 02:51:00,
2013-05-28 20:12:00,50.0,40.0,-100.00,SSW,213,4.0,9.0,68,0.00,,,0.65,80.000000,,2013-05-29 03:12:00,
2013-05-28 20:21:00,50.0,40.0,-100.00,SSW,213,4.0,9.0,68,0.00,,,0.65,80.000000,,2013-05-29 03:21:00,
2013-05-28 20:33:00,50.0,40.0,-100.00,SSW,213,4.0,9.0,68,0.00,,,0.65,80.000000,,2013-05-29 03:33:00,
2013-05-28 20:43:00,50.0,40.0,-100.00,SSW,213,4.0,9.0,68,0.00,,,0.65,80.000000,,2013-05-29 03:43:00,
2013-05-28 20:51:00,47.0,41.0,-100.00,East,90,3.0,7.0,78,0.00,,,0.63,4.000000,,2013-05-29 03:51:00,
2013-05-28 21:12:00,47.0,41.0,-100.00,East,90,3.0,7.0,78,0.00,,,0.63,4.000000,,2013-05-29 04:12:00,
2013-05-28 21:23:00,47.0,41.0,-100.00,East,90,3.0,7.0,78,0.00,,,0.63,4.000000,,2013-05-29 04:23:00,
2013-05-28 21:33:00,47.0,41.0,-100.00,East,90,3.0,7.0,78,0.00,,,0.63,4.000000,,2013-05-29 04:33:00,
2013-05-28 21:42:00,47.0,41.0,-100.00,East,90,3.0,7.0,78,0.00,,,0.63,4.000000,,2013-05-29 04:42:00,
2013-05-28 21:51:00,48.0,39.0,-100.00,South,179,4.0,9.0,70,0.00,,,0.61,1.000000,,2013-05-29 04:51:00,
2013-05-28 22:12:00,48.0,39.0,-100.00,South,179,4.0,9.0,70,0.00,,,0.61,1.000000,,2013-05-29 05:12:00,
2013-05-28 22:22:00,48.0,39.0,-100.00,South,179,4.0,9.0,70,0.00,,,0.61,1.000000,,2013-05-29 05:22:00,
2013-05-28 22:32:00,48.0,39.0,-100.00,South,179,4.0,9.0,70,0.00,,,0.61,1.000000,,2013-05-29 05:32:00,
2013-05-28 22:42:00,48.0,39.0,-100.00,South,179,4.0,9.0,70,0.00,,,0.61,1.000000,,2013-05-29 05:42:00,
2013-05-28 22:51:00,47.0,38.0,-100.00,SSE,168,5.0,11.0,72,0.00,,,0.58,1.000000,,2013-05-29 05:51:00,
2013-05-28 23:11:00,47.0,38.0,-100.00,SSE,168,5.0,11.0,72,0.00,,,0.58,1.000000,,2013-05-29 06:11:00,
2013-05-28 23:21:00,47.0,38.0,-100.00,SSE,168,5.0,11.0,72,0.00,,,0.58,1.000000,,2013-05-29 06:21:00,
2013-05-28 23:31:00,47.0,38.0,-100.00,SSE,168,5.0,11.0,72,0.00,,,0.58,1.000000,,2013-05-29 06:31:00,
2013-05-28 23:41:00,47.0,38.0,-100.00,SSE,168,5.0,11.0,72,0.00,,,0.58,1.000000,,2013-05-29 06:41:00,
2013-05-28 23:51:00,46.0,38.0,-100.00,SSE,166,5.0,12.0,73,0.00,,,0.50,1.000000,,2013-05-29 06:51:00,